This is the latest recevied weather packets stored in our database for station/object VU3ZAG-WX. If no packets are shown the sender has not sent any weather packets the latest 10 day(s).
| Time | Temp. | Humidity | Pressure | Rain* | Wind** | Luminosity | Snow |
|---|---|---|---|---|---|---|---|
| 1777690080 | 33.33° C | 59% | 1009.8 hPa | - | - | - | - |
| 1777689474 | 33.33° C | 60% | 1009.6 hPa | - | - | - | - |
| 1777688867 | 33.89° C | 58% | 1009.5 hPa | - | - | - | - |
| 1777688261 | 33.89° C | 58% | 1009.3 hPa | - | - | - | - |
| 1777687655 | 33.33° C | 58% | 1009.2 hPa | - | - | - | - |
| 1777687050 | 33.33° C | 56% | 1009.1 hPa | - | - | - | - |
| 1777686444 | 33.33° C | 56% | 1008.9 hPa | - | - | - | - |
| 1777685838 | 32.78° C | 59% | 1008.8 hPa | - | - | - | - |
| 1777685232 | 32.78° C | 59% | 1008.7 hPa | - | - | - | - |
| 1777684627 | 32.78° C | 58% | 1008.5 hPa | - | - | - | - |
| 1777684021 | 32.78° C | 59% | 1008.4 hPa | - | - | - | - |
| 1777683415 | 32.22° C | 62% | 1008.4 hPa | - | - | - | - |
| 1777682810 | 32.22° C | 58% | 1008.3 hPa | - | - | - | - |
| 1777682204 | 32.22° C | 63% | 1008.2 hPa | - | - | - | - |
| 1777681598 | 32.22° C | 61% | 1008.1 hPa | - | - | - | - |
| 1777680992 | 32.22° C | 62% | 1008 hPa | - | - | - | - |
| 1777680387 | 32.78° C | 62% | 1008 hPa | - | - | - | - |
| 1777679781 | 32.78° C | 59% | 1007.9 hPa | - | - | - | - |
| 1777679176 | 32.78° C | 59% | 1007.9 hPa | - | - | - | - |
| 1777678569 | 32.78° C | 58% | 1007.8 hPa | - | - | - | - |
| 1777677964 | 32.78° C | 61% | 1007.8 hPa | - | - | - | - |
| 1777677358 | 32.78° C | 59% | 1007.7 hPa | - | - | - | - |
| 1777676752 | 32.78° C | 58% | 1007.6 hPa | - | - | - | - |
| 1777676147 | 32.78° C | 58% | 1007.7 hPa | - | - | - | - |
| 1777675541 | 32.78° C | 57% | 1007.7 hPa | - | - | - | - |
* Rain since midnight (hover to see other rain measurements)
** Current wind speed in m/s (hover to see current wind gust speed)